Tracking 30923 objects as of 1-Jul-2025
HD Live streaming from Space Station
objects crossing your sky now

USA 452

Track USA 452 now!
10-day predictions


NORAD ID: 62351
Int'l Code: 2024-243M
Perigee: 581.4 km
Apogee: 587.0 km
Inclination: 70.0 °
Period: 96.2 minutes
Semi major axis: 6955 km
RCS: Unknown
Launch date: December 17, 2024
Source: United States (US)
Launch site: AIR FORCE WESTERN TEST RANGE (AFWTR)
Your satellite tracking list
HAMSAT (VO-52)
Track 1 satellite(s)




NASA's NSSDC Master Catalog

Two Line Element Set (TLE):
1 62351U 24243M   25170.96366411 0.00000000  00000-0  00000-0 0    06
2 62351  69.9960 112.6000 0004000  82.4923 277.5076 14.96714356    00
Source of the keplerian elements: McCants